Airfield :
LOGIN :

Register | Disclaimer

   EN    FR    IT 

 










Legend :    VFR   Marginal VFR   IFR   Intensive IFR   Very Intensive IFR
Visi :
Ceiling :
>= 8 km
>= 3000ft
5 to 8 km
1000 to 3000 ft
1500m to 5 km
500 to 1000 ft
800 to 1500m
200 to 500 ft
< 800m
< 200 ft
Symbols :   Thunderstorms  Fog  Heavy snow  Heavy precipitations  Wind > 20 kt
SIGMETs :     Misc.  Thunderstorms  Icing  Turbulence  Mountain Waves  Volcanic Ashes







- Airport Elevation : 3368 ft


LSGC - Les Eplatures

CURRENT METAR :
  • 202020Z AUTO 00000KT CAVOK 11/06 Q1025

EXPIRED METARs :
  • 201950Z AUTO 00000KT CAVOK 13/07 Q1025
  • 201920Z AUTO 00000KT CAVOK 14/07 Q1025
  • 201850Z AUTO 00000KT CAVOK 15/07 Q1024
  • 201820Z AUTO 36005KT 310V040 CAVOK 18/06 Q1024
  • 201750Z 36003KT 330V040 CAVOK 18/07 Q1024

TAF TAF LSGC
Valid from the 20 at 15:00 until the 21 at 00:00 UTC


201425Z 2015/2024 VRB03KT CAVOK
No reported NOTAMs for that airfield.



MET'MAP, your aeronautical weather chart ! - Copyright ORBIFLY December 2007 - Disclaimer

ORBIFLY MET'MAP TEAM :

Programming & Development : Alexandra Zaïnal
Concept & Development : Baudouin d'Aumeries
Co-Development & Prog : Marc-Olivier Méhu
Technical & hardware support : Manuel Goepfert

Contact : metmap@orbifly.com




SOURCES & CREDITS :

   NOAA